Weather History for Williston, ND

Change the Weather History Date:

Tuesday, September 3, 2013

  Actual Average Record
Temperature  
Mean Temperature 76 °F 63 °F  
Max Temperature 95 °F 78 °F 102 °F (1978)
Min Temperature 57 °F 48 °F 32 °F (1902)
Degree Days  
Heating Degree Days 0 5  
Month to date heating degree days 0 13  
Since 1 July heating degree days 46 84  
Cooling Degree Days 11 2  
Month to date cooling degree days 19 6  
Year to date cooling degree days 346 435  
Growing Degree Days 26 (Base 50)    
Moisture  
Dew Point 57 °F    
Average Humidity 58    
Maximum Humidity 93    
Minimum Humidity 23    
Precipitation  
Precipitation 0.00 in 0.04 in 1.60 in (1951)
Month to date precipitation 0.00 0.12  
Year to date precipitation 15.89 11.24  
Sea Level Pressure  
Sea Level Pressure 29.93 in    
Wind  
Wind Speed 2 mph (East)    
Max Wind Speed 10 mph    
Max Gust Speed 13 mph    
Visibility 9 miles    
Events      
T = Trace of Precipitation, MM = Missing Value Source: NWS Daily Summary

Daily Weather History Graph

Daily Weather History Graph

Search for Another Location

Airport:

Trip Planner

Search our weather history database for the weather conditions in past years. The results will help you decide how hot, cold, wet, or windy it might be!

Date:

Astronomy

Sep. 03, 2013 Rise Set
Actual Time 7:15 AM CDT 8:31 PM CDT
Civil Twilight 6:43 AM CDT 9:03 PM CDT
Nautical Twilight 6:04 AM CDT 9:41 PM CDT
Astronomical Twilight 5:22 AM CDT 10:23 PM CDT
Moon 5:27 AM CDT (9/3) 7:20 PM CDT (9/3)
Length of Visible Light 14h 19m
Length of Day
13h 15m
Waning Crescent, 3% of the Moon is Illuminated
Sep 3
Waning Crescent
Sep 5
New
Sep 12
First Quarter
Sep 19
Full
Sep 26
Last Quarter

Hourly Weather History & Observations

Time (CDT) Temp. Heat Index Dew Point Humidity Pressure Visibility Wind Dir Wind Speed Gust Speed Precip Events Conditions
12:52 AM 70.0 °F - 57.0 °F 63% 29.90 in 10.0 mi Calm Calm - N/A   Clear
1:52 AM 64.9 °F - 57.9 °F 78% 29.90 in 10.0 mi Calm Calm - N/A   Clear
2:52 AM 69.1 °F - 57.9 °F 68% 29.89 in 10.0 mi South 4.6 mph - N/A   Clear
3:52 AM 64.9 °F - 57.0 °F 75% 29.89 in 10.0 mi Calm Calm - N/A   Clear
4:52 AM 61.0 °F - 55.9 °F 83% 29.89 in 10.0 mi Calm Calm - N/A   Clear
5:52 AM 63.0 °F - 57.9 °F 84% 29.90 in 10.0 mi East 3.5 mph - N/A   Clear
6:52 AM 61.0 °F - 57.0 °F 87% 29.91 in 10.0 mi NE 3.5 mph - N/A   Clear
7:52 AM 57.9 °F - 55.0 °F 90% 29.92 in 8.0 mi Calm Calm - N/A   Clear
8:24 AM 64.4 °F - 59.0 °F 83% 29.95 in 2.5 mi Calm Calm - N/A   Haze
8:33 AM 64.4 °F - 59.0 °F 83% 29.95 in 3.0 mi Calm Calm - N/A   Haze
8:52 AM 68.0 °F - 59.0 °F 73% 29.93 in 6.0 mi Calm Calm - N/A   Haze
9:52 AM 73.0 °F - 60.1 °F 64% 29.93 in 10.0 mi SSE 3.5 mph - N/A   Clear
10:52 AM 79.0 °F - 62.1 °F 56% 29.92 in 10.0 mi East 3.5 mph - N/A   Clear
11:52 AM 86.0 °F 86.1 °F 61.0 °F 43% 29.92 in 10.0 mi ENE 6.9 mph - N/A   Clear
12:52 PM 89.1 °F 88.8 °F 60.1 °F 38% 29.92 in 10.0 mi Calm Calm - N/A   Clear
1:52 PM 90.0 °F 89.1 °F 59.0 °F 35% 29.92 in 10.0 mi South 5.8 mph - N/A   Clear
2:52 PM 93.0 °F 90.8 °F 54.0 °F 27% 29.92 in 10.0 mi Calm Calm - N/A   Clear
3:52 PM 95.0 °F 92.5 °F 53.1 °F 24% 29.91 in 10.0 mi Calm Calm - N/A   Clear
4:52 PM 95.0 °F - 52.0 °F 23% 29.91 in 10.0 mi Calm Calm - N/A   Clear
5:52 PM 93.0 °F 90.6 °F 53.1 °F 26% 29.92 in 10.0 mi East 4.6 mph - N/A   Clear
6:52 PM 91.0 °F 89.2 °F 55.9 °F 30% 29.93 in 10.0 mi ESE 8.1 mph - N/A   Clear
7:52 PM 84.9 °F 83.7 °F 55.9 °F 37% 29.94 in 10.0 mi East 8.1 mph - N/A   Clear
8:52 PM 81.0 °F 81.3 °F 59.0 °F 47% 29.96 in 10.0 mi NE 11.5 mph - N/A   Clear
9:52 PM 77.0 °F - 59.0 °F 54% 29.98 in 10.0 mi ENE 12.7 mph 17.3 mph N/A   Clear
10:52 PM 75.0 °F - 57.0 °F 53% 30.00 in 10.0 mi ENE 9.2 mph - N/A   Clear
11:52 PM 71.1 °F - 55.9 °F 59% 30.02 in 10.0 mi North 3.5 mph - N/A   Clear